Time,TemperatureF,DewpointF,PressureIn,WindDirection,WindDirectionDegrees,WindSpeedMPH,WindSpeedGustMPH,Humidity,HourlyPrecipIn,Conditions,Clouds,dailyrainin,SoftwareType,DateUTC
2013-06-11 00:01:00,60.2,59.6,29.91,North,355,0.0,0.0,98,0.51,,,0.01,Wunderground v.1.15,2013-06-11 04:01:00,
2013-06-11 00:03:00,60.2,60.0,29.91,North,355,1.0,-999.0,98,-99.99,,,0.02,weatherlink.com 1.10,2013-06-11 04:03:00,
2013-06-11 00:05:00,60.2,59.6,29.91,South,177,1.0,5.0,98,0.34,,,0.03,Wunderground v.1.15,2013-06-11 04:05:00,
2013-06-11 00:09:00,60.2,59.6,29.91,SE,142,3.0,5.0,98,0.16,,,0.04,Wunderground v.1.15,2013-06-11 04:09:00,
2013-06-11 00:14:00,60.3,59.7,29.91,WNW,300,0.0,1.0,98,0.07,,,0.04,Wunderground v.1.15,2013-06-11 04:14:00,
2013-06-11 00:19:00,60.3,59.7,29.90,ESE,105,0.0,3.0,98,0.04,,,0.04,Wunderground v.1.15,2013-06-11 04:19:00,
2013-06-11 00:24:00,60.3,59.7,29.90,North,355,1.0,1.0,98,0.04,,,0.05,Wunderground v.1.15,2013-06-11 04:24:00,
2013-06-11 00:29:00,60.4,59.8,29.90,NE,37,0.0,2.0,98,0.04,,,0.05,Wunderground v.1.15,2013-06-11 04:29:00,
2013-06-11 00:34:00,60.4,59.8,29.90,NE,37,0.0,0.0,98,0.04,,,0.05,Wunderground v.1.15,2013-06-11 04:34:00,
2013-06-11 00:39:00,60.4,59.8,29.89,NNE,26,0.0,2.0,98,0.00,,,0.05,Wunderground v.1.15,2013-06-11 04:39:00,
2013-06-11 00:44:00,60.4,59.8,29.89,NNE,18,0.0,3.0,98,0.00,,,0.05,Wunderground v.1.15,2013-06-11 04:44:00,
2013-06-11 00:50:00,60.4,59.8,29.88,SW,234,0.0,1.0,98,0.00,,,0.05,Wunderground v.1.15,2013-06-11 04:50:00,
2013-06-11 00:55:00,60.5,59.9,29.87,North,360,1.0,1.0,98,0.00,,,0.05,Wunderground v.1.15,2013-06-11 04:55:00,
2013-06-11 01:00:00,60.5,59.9,29.86,NNE,13,1.0,1.0,98,0.00,,,0.05,Wunderground v.1.15,2013-06-11 05:00:00,
2013-06-11 01:06:00,60.5,59.9,29.86,NNE,27,0.0,1.0,98,0.00,,,0.05,Wunderground v.1.15,2013-06-11 05:06:00,
2013-06-11 01:11:00,60.5,59.9,29.85,NE,51,0.0,1.0,98,0.00,,,0.06,Wunderground v.1.15,2013-06-11 05:11:00,
2013-06-11 01:17:00,60.6,60.3,29.87,SW,225,0.0,3.0,99,0.00,,,0.06,Wunderground v.1.15,2013-06-11 05:17:00,
2013-06-11 01:23:00,60.7,61.0,29.86,ESE,115,3.0,-999.0,99,-99.99,,,0.07,weatherlink.com 1.10,2013-06-11 05:23:00,
2013-06-11 01:28:00,60.7,60.4,29.84,NE,54,0.0,3.0,99,0.06,,,0.07,Wunderground v.1.15,2013-06-11 05:28:00,
2013-06-11 01:33:00,60.7,60.1,29.84,SSW,207,4.0,4.0,98,0.05,,,0.07,Wunderground v.1.15,2013-06-11 05:33:00,
2013-06-11 01:39:00,60.8,61.0,29.84,North,355,1.0,-999.0,99,-99.99,,,0.07,weatherlink.com 1.10,2013-06-11 05:39:00,
2013-06-11 01:44:00,60.9,60.6,29.84,North,355,0.0,1.0,99,0.00,,,0.07,Wunderground v.1.15,2013-06-11 05:44:00,
2013-06-11 01:50:00,60.9,60.3,29.83,North,355,0.0,0.0,98,0.00,,,0.07,Wunderground v.1.15,2013-06-11 05:50:00,
2013-06-11 01:56:00,60.9,60.3,29.83,NNW,335,0.0,1.0,98,0.16,,,0.09,Wunderground v.1.15,2013-06-11 05:56:00,
2013-06-11 02:01:00,60.9,60.3,29.83,NNW,329,0.0,0.0,98,0.33,,,0.11,Wunderground v.1.15,2013-06-11 06:01:00,
2013-06-11 02:06:00,60.9,60.6,29.83,NNW,329,0.0,1.0,99,0.09,,,0.11,Wunderground v.1.15,2013-06-11 06:06:00,
2013-06-11 02:12:00,60.9,60.6,29.82,NNW,329,0.0,0.0,99,0.17,,,0.13,Wunderground v.1.15,2013-06-11 06:12:00,
2013-06-11 02:17:00,60.9,60.3,29.82,NW,313,0.0,4.0,98,0.07,,,0.13,Wunderground v.1.15,2013-06-11 06:17:00,
2013-06-11 02:22:00,60.9,60.3,29.82,North,360,0.0,2.0,98,0.04,,,0.14,Wunderground v.1.15,2013-06-11 06:22:00,
2013-06-11 02:27:00,60.9,60.3,29.82,North,360,0.0,2.0,98,0.42,,,0.20,Wunderground v.1.15,2013-06-11 06:27:00,
2013-06-11 02:32:00,60.9,60.3,29.81,North,360,1.0,1.0,98,0.37,,,0.24,Wunderground v.1.15,2013-06-11 06:32:00,
2013-06-11 02:37:00,60.9,60.6,29.81,ESE,107,0.0,2.0,99,0.13,,,0.25,Wunderground v.1.15,2013-06-11 06:37:00,
2013-06-11 02:42:00,60.9,60.6,29.81,ESE,102,0.0,0.0,99,0.15,,,0.27,Wunderground v.1.15,2013-06-11 06:42:00,
2013-06-11 02:47:00,60.9,60.6,29.81,WNW,289,0.0,1.0,99,0.78,,,0.33,Wunderground v.1.15,2013-06-11 06:47:00,
2013-06-11 02:52:00,60.9,60.6,29.80,WNW,291,0.0,1.0,99,0.14,,,0.34,Wunderground v.1.15,2013-06-11 06:52:00,
2013-06-11 02:57:00,60.9,60.6,29.80,WNW,290,0.0,1.0,99,0.07,,,0.34,Wunderground v.1.15,2013-06-11 06:57:00,
2013-06-11 03:02:00,61.0,60.7,29.80,WNW,303,0.0,0.0,99,0.04,,,0.34,Wunderground v.1.15,2013-06-11 07:02:00,
2013-06-11 03:07:00,61.1,60.8,29.80,NW,315,0.0,2.0,99,0.00,,,0.34,Wunderground v.1.15,2013-06-11 07:07:00,
2013-06-11 03:12:00,61.1,60.8,29.80,NW,315,0.0,0.0,99,0.00,,,0.35,Wunderground v.1.15,2013-06-11 07:12:00,
2013-06-11 03:17:00,61.1,60.8,29.80,SSW,211,0.0,1.0,99,0.00,,,0.35,Wunderground v.1.15,2013-06-11 07:17:00,
2013-06-11 03:23:00,61.1,60.8,29.80,SSW,211,0.0,1.0,99,0.00,,,0.35,Wunderground v.1.15,2013-06-11 07:23:00,
2013-06-11 03:28:00,61.2,60.9,29.79,SSW,211,1.0,1.0,99,0.13,,,0.37,Wunderground v.1.15,2013-06-11 07:28:00,
2013-06-11 03:33:00,61.2,60.9,29.78,SSW,211,0.0,0.0,99,0.11,,,0.38,Wunderground v.1.15,2013-06-11 07:33:00,
2013-06-11 03:38:00,61.2,60.9,29.78,SSW,211,0.0,0.0,99,0.07,,,0.38,Wunderground v.1.15,2013-06-11 07:38:00,
2013-06-11 03:43:00,61.3,61.0,29.79,SSW,211,0.0,1.0,99,0.05,,,0.39,Wunderground v.1.15,2013-06-11 07:43:00,
2013-06-11 03:48:00,61.3,61.0,29.78,SSW,211,0.0,1.0,99,0.20,,,0.41,Wunderground v.1.15,2013-06-11 07:48:00,
2013-06-11 03:53:00,61.3,61.0,29.78,SSW,211,0.0,0.0,99,0.12,,,0.42,Wunderground v.1.15,2013-06-11 07:53:00,
2013-06-11 03:58:00,61.3,61.0,29.77,SSW,211,0.0,0.0,99,0.08,,,0.42,Wunderground v.1.15,2013-06-11 07:58:00,
2013-06-11 04:03:00,61.3,61.0,29.76,SSW,211,0.0,0.0,99,0.05,,,0.42,Wunderground v.1.15,2013-06-11 08:03:00,
2013-06-11 04:08:00,61.3,61.0,29.76,SSW,211,0.0,0.0,99,0.00,,,0.42,Wunderground v.1.15,2013-06-11 08:08:00,
2013-06-11 04:13:00,61.4,61.1,29.76,SSW,211,0.0,0.0,99,0.00,,,0.42,Wunderground v.1.15,2013-06-11 08:13:00,
2013-06-11 04:18:00,61.4,61.1,29.76,SSW,211,0.0,0.0,99,0.00,,,0.42,Wunderground v.1.15,2013-06-11 08:18:00,
2013-06-11 04:23:00,61.5,61.2,29.76,SSW,211,0.0,0.0,99,0.00,,,0.42,Wunderground v.1.15,2013-06-11 08:23:00,
2013-06-11 04:28:00,61.6,61.3,29.75,SSW,211,0.0,0.0,99,0.00,,,0.42,Wunderground v.1.15,2013-06-11 08:28:00,
2013-06-11 04:33:00,61.6,61.3,29.75,SSW,211,0.0,0.0,99,0.00,,,0.42,Wunderground v.1.15,2013-06-11 08:33:00,
2013-06-11 04:38:00,61.6,61.3,29.75,SSW,211,0.0,2.0,99,0.00,,,0.42,Wunderground v.1.15,2013-06-11 08:38:00,
2013-06-11 04:43:00,61.7,61.4,29.74,SSW,211,0.0,1.0,99,0.00,,,0.43,Wunderground v.1.15,2013-06-11 08:43:00,
2013-06-11 04:48:00,61.8,61.5,29.74,SSW,211,0.0,1.0,99,0.00,,,0.43,Wunderground v.1.15,2013-06-11 08:48:00,
2013-06-11 04:53:00,61.8,61.5,29.74,SSW,211,0.0,0.0,99,0.00,,,0.43,Wunderground v.1.15,2013-06-11 08:53:00,
2013-06-11 04:58:00,61.9,61.6,29.74,NW,306,0.0,1.0,99,0.00,,,0.43,Wunderground v.1.15,2013-06-11 08:58:00,
2013-06-11 05:03:00,62.0,61.7,29.74,NW,306,0.0,0.0,99,0.00,,,0.43,Wunderground v.1.15,2013-06-11 09:03:00,
2013-06-11 05:08:00,62.0,61.7,29.74,NW,306,0.0,0.0,99,0.00,,,0.43,Wunderground v.1.15,2013-06-11 09:08:00,
2013-06-11 05:13:00,62.1,61.8,29.74,NW,306,0.0,0.0,99,0.00,,,0.43,Wunderground v.1.15,2013-06-11 09:13:00,
2013-06-11 05:18:00,62.2,61.9,29.74,NW,306,0.0,0.0,99,0.00,,,0.44,Wunderground v.1.15,2013-06-11 09:18:00,
2013-06-11 05:23:00,62.2,61.9,29.74,NW,306,0.0,0.0,99,0.00,,,0.44,Wunderground v.1.15,2013-06-11 09:23:00,
2013-06-11 05:28:00,62.3,62.0,29.73,NW,306,0.0,0.0,99,0.00,,,0.44,Wunderground v.1.15,2013-06-11 09:28:00,
2013-06-11 05:33:00,62.3,62.0,29.73,NW,306,0.0,0.0,99,0.00,,,0.44,Wunderground v.1.15,2013-06-11 09:33:00,
2013-06-11 05:38:00,62.3,62.0,29.73,NW,306,0.0,0.0,99,0.00,,,0.45,Wunderground v.1.15,2013-06-11 09:38:00,
2013-06-11 05:43:00,62.3,62.0,29.73,NW,306,0.0,0.0,99,0.00,,,0.45,Wunderground v.1.15,2013-06-11 09:43:00,
2013-06-11 05:48:00,62.3,62.0,29.72,NW,306,0.0,0.0,99,0.05,,,0.46,Wunderground v.1.15,2013-06-11 09:48:00,
2013-06-11 05:53:00,62.3,62.0,29.72,NW,306,0.0,0.0,99,0.05,,,0.46,Wunderground v.1.15,2013-06-11 09:53:00,
2013-06-11 05:58:00,62.2,61.9,29.71,NW,306,0.0,0.0,99,0.05,,,0.46,Wunderground v.1.15,2013-06-11 09:58:00,
2013-06-11 06:03:00,62.1,61.8,29.72,NW,306,0.0,0.0,99,0.00,,,0.46,Wunderground v.1.15,2013-06-11 10:03:00,
2013-06-11 06:08:00,62.2,61.9,29.72,NW,306,0.0,0.0,99,0.00,,,0.46,Wunderground v.1.15,2013-06-11 10:08:00,
2013-06-11 06:13:00,62.2,61.9,29.72,NW,306,0.0,0.0,99,0.00,,,0.46,Wunderground v.1.15,2013-06-11 10:13:00,
2013-06-11 06:18:00,62.2,61.9,29.71,NW,306,1.0,1.0,99,0.00,,,0.46,Wunderground v.1.15,2013-06-11 10:18:00,
2013-06-11 06:23:00,62.3,62.0,29.71,NW,305,0.0,1.0,99,0.00,,,0.46,Wunderground v.1.15,2013-06-11 10:23:00,
2013-06-11 06:28:00,62.4,62.1,29.72,South,175,0.0,2.0,99,0.00,,,0.46,Wunderground v.1.15,2013-06-11 10:28:00,
2013-06-11 06:33:00,62.5,62.2,29.72,South,172,0.0,4.0,99,0.00,,,0.46,Wunderground v.1.15,2013-06-11 10:33:00,
2013-06-11 06:38:00,62.9,62.6,29.71,ESE,113,0.0,5.0,99,0.00,,,0.46,Wunderground v.1.15,2013-06-11 10:38:00,
2013-06-11 06:43:00,63.9,63.9,29.71,SW,221,0.0,8.0,100,0.00,,,0.46,Wunderground v.1.15,2013-06-11 10:43:00,
2013-06-11 06:48:00,64.2,63.9,29.72,SE,140,0.0,8.0,99,0.00,,,0.46,Wunderground v.1.15,2013-06-11 10:48:00,
2013-06-11 06:53:00,64.7,64.4,29.72,North,360,0.0,3.0,99,0.00,,,0.46,Wunderground v.1.15,2013-06-11 10:53:00,
2013-06-11 06:58:00,64.9,64.6,29.72,North,360,0.0,3.0,99,0.00,,,0.46,Wunderground v.1.15,2013-06-11 10:58:00,
2013-06-11 07:03:00,65.0,65.0,29.72,ENE,68,0.0,4.0,100,0.00,,,0.46,Wunderground v.1.15,2013-06-11 11:03:00,
2013-06-11 07:08:00,65.1,65.1,29.72,SW,214,2.0,6.0,100,0.00,,,0.47,Wunderground v.1.15,2013-06-11 11:08:00,
2013-06-11 07:13:00,65.3,65.0,29.72,SSW,198,1.0,3.0,99,0.00,,,0.47,Wunderground v.1.15,2013-06-11 11:13:00,
2013-06-11 07:18:00,65.3,65.0,29.72,South,182,0.0,3.0,99,0.00,,,0.47,Wunderground v.1.15,2013-06-11 11:18:00,
2013-06-11 07:23:00,65.3,65.0,29.72,SW,227,1.0,3.0,99,0.00,,,0.47,Wunderground v.1.15,2013-06-11 11:23:00,
2013-06-11 07:28:00,65.4,65.1,29.72,SW,220,0.0,3.0,99,0.00,,,0.47,Wunderground v.1.15,2013-06-11 11:28:00,
2013-06-11 07:33:00,65.3,65.0,29.72,SW,222,0.0,2.0,99,0.00,,,0.47,Wunderground v.1.15,2013-06-11 11:33:00,
2013-06-11 07:38:00,65.3,65.0,29.72,SSE,153,0.0,2.0,99,0.00,,,0.47,Wunderground v.1.15,2013-06-11 11:38:00,
2013-06-11 07:43:00,65.3,65.0,29.72,SSE,150,0.0,2.0,99,0.00,,,0.47,Wunderground v.1.15,2013-06-11 11:43:00,
2013-06-11 07:48:00,65.3,65.0,29.72,South,180,0.0,2.0,99,0.00,,,0.47,Wunderground v.1.15,2013-06-11 11:48:00,
2013-06-11 07:53:00,65.5,65.5,29.71,South,180,0.0,2.0,100,0.00,,,0.47,Wunderground v.1.15,2013-06-11 11:53:00,
2013-06-11 07:58:00,65.6,65.6,29.71,South,180,0.0,2.0,100,0.00,,,0.47,Wunderground v.1.15,2013-06-11 11:58:00,
2013-06-11 08:03:00,65.7,65.7,29.71,SW,221,0.0,1.0,100,0.00,,,0.47,Wunderground v.1.15,2013-06-11 12:03:00,
2013-06-11 08:08:00,65.8,65.8,29.71,SW,217,0.0,2.0,100,0.00,,,0.47,Wunderground v.1.15,2013-06-11 12:08:00,
2013-06-11 08:13:00,65.7,65.7,29.71,South,188,3.0,4.0,100,0.00,,,0.47,Wunderground v.1.15,2013-06-11 12:13:00,
2013-06-11 08:18:00,65.8,65.5,29.71,South,182,0.0,4.0,99,0.00,,,0.47,Wunderground v.1.15,2013-06-11 12:18:00,
2013-06-11 08:23:00,65.9,65.6,29.71,South,184,0.0,4.0,99,0.00,,,0.47,Wunderground v.1.15,2013-06-11 12:23:00,
2013-06-11 08:29:00,65.9,65.6,29.71,SE,138,4.0,4.0,99,0.00,,,0.47,Wunderground v.1.15,2013-06-11 12:29:00,
2013-06-11 08:34:00,66.0,65.7,29.71,ENE,76,0.0,2.0,99,0.00,,,0.47,Wunderground v.1.15,2013-06-11 12:34:00,
2013-06-11 08:39:00,66.1,65.8,29.71,South,180,0.0,5.0,99,0.00,,,0.47,Wunderground v.1.15,2013-06-11 12:39:00,
2013-06-11 08:44:00,66.2,66.2,29.71,SSW,192,0.0,2.0,100,0.00,,,0.47,Wunderground v.1.15,2013-06-11 12:44:00,
2013-06-11 08:49:00,66.2,66.2,29.71,SE,138,0.0,3.0,100,0.00,,,0.47,Wunderground v.1.15,2013-06-11 12:49:00,
2013-06-11 08:54:00,66.2,66.2,29.71,SSE,156,0.0,3.0,100,0.00,,,0.47,Wunderground v.1.15,2013-06-11 12:54:00,
2013-06-11 08:59:00,66.3,66.0,29.71,South,186,2.0,3.0,99,0.00,,,0.47,Wunderground v.1.15,2013-06-11 12:59:00,
2013-06-11 09:04:00,66.3,66.0,29.70,South,171,0.0,0.0,99,0.00,,,0.47,Wunderground v.1.15,2013-06-11 13:04:00,
2013-06-11 09:09:00,66.3,66.0,29.70,South,171,0.0,0.0,99,0.00,,,0.47,Wunderground v.1.15,2013-06-11 13:09:00,
2013-06-11 09:14:00,66.4,66.1,29.70,South,188,1.0,3.0,99,0.00,,,0.47,Wunderground v.1.15,2013-06-11 13:14:00,
2013-06-11 09:19:00,66.5,66.2,29.70,SSW,208,0.0,3.0,99,0.00,,,0.47,Wunderground v.1.15,2013-06-11 13:19:00,
2013-06-11 09:24:00,66.7,66.4,29.70,East,92,1.0,2.0,99,0.00,,,0.47,Wunderground v.1.15,2013-06-11 13:24:00,
2013-06-11 09:29:00,66.7,66.4,29.70,ESE,108,0.0,2.0,99,0.00,,,0.47,Wunderground v.1.15,2013-06-11 13:29:00,
2013-06-11 09:34:00,66.7,66.4,29.70,ESE,108,0.0,0.0,99,0.00,,,0.47,Wunderground v.1.15,2013-06-11 13:34:00,
2013-06-11 09:39:00,66.7,66.4,29.70,SSW,213,0.0,4.0,99,0.00,,,0.47,Wunderground v.1.15,2013-06-11 13:39:00,
2013-06-11 09:44:00,66.7,66.4,29.69,SSE,164,1.0,4.0,99,0.00,,,0.47,Wunderground v.1.15,2013-06-11 13:44:00,
2013-06-11 09:49:00,66.7,66.4,29.69,South,182,0.0,4.0,99,0.00,,,0.47,Wunderground v.1.15,2013-06-11 13:49:00,
2013-06-11 09:54:00,66.8,66.8,29.69,South,189,0.0,1.0,100,0.00,,,0.47,Wunderground v.1.15,2013-06-11 13:54:00,
2013-06-11 09:59:00,66.9,66.6,29.69,SE,138,0.0,3.0,99,0.00,,,0.47,Wunderground v.1.15,2013-06-11 13:59:00,
2013-06-11 10:04:00,67.1,67.1,29.69,NNW,338,1.0,2.0,100,0.00,,,0.47,Wunderground v.1.15,2013-06-11 14:04:00,
2013-06-11 10:09:00,67.3,67.0,29.69,South,169,0.0,3.0,99,0.00,,,0.47,Wunderground v.1.15,2013-06-11 14:09:00,
2013-06-11 10:14:00,67.5,67.2,29.69,SSE,162,1.0,2.0,99,0.00,,,0.47,Wunderground v.1.15,2013-06-11 14:14:00,
2013-06-11 10:19:00,67.6,67.6,29.69,SE,140,0.0,2.0,100,0.00,,,0.47,Wunderground v.1.15,2013-06-11 14:19:00,
2013-06-11 10:24:00,67.7,67.7,29.69,ESE,121,0.0,1.0,100,0.00,,,0.47,Wunderground v.1.15,2013-06-11 14:24:00,
2013-06-11 10:29:00,67.8,67.5,29.69,ESE,112,0.0,1.0,99,0.00,,,0.47,Wunderground v.1.15,2013-06-11 14:29:00,
2013-06-11 10:34:00,67.9,67.6,29.69,ESE,112,0.0,1.0,99,0.00,,,0.47,Wunderground v.1.15,2013-06-11 14:34:00,
2013-06-11 10:39:00,68.1,68.1,29.69,ENE,61,0.0,3.0,100,0.00,,,0.47,Wunderground v.1.15,2013-06-11 14:39:00,
2013-06-11 10:44:00,68.2,68.2,29.69,SE,132,0.0,1.0,100,0.00,,,0.47,Wunderground v.1.15,2013-06-11 14:44:00,
2013-06-11 10:49:00,68.3,68.3,29.69,SE,131,0.0,2.0,100,0.00,,,0.47,Wunderground v.1.15,2013-06-11 14:49:00,
2013-06-11 10:54:00,68.4,68.1,29.69,North,360,0.0,1.0,99,0.00,,,0.47,Wunderground v.1.15,2013-06-11 14:54:00,
2013-06-11 10:59:00,68.5,68.2,29.69,North,355,0.0,1.0,99,0.00,,,0.47,Wunderground v.1.15,2013-06-11 14:59:00,
2013-06-11 11:04:00,68.5,68.2,29.69,NNW,329,0.0,1.0,99,0.00,,,0.47,Wunderground v.1.15,2013-06-11 15:04:00,
2013-06-11 11:09:00,68.6,68.3,29.69,ESE,115,0.0,2.0,99,0.00,,,0.47,Wunderground v.1.15,2013-06-11 15:09:00,
2013-06-11 11:14:00,69.0,69.0,29.69,ESE,115,1.0,1.0,100,0.00,,,0.47,Wunderground v.1.15,2013-06-11 15:14:00,
2013-06-11 11:19:00,69.0,68.7,29.69,ESE,104,0.0,3.0,99,0.00,,,0.47,Wunderground v.1.15,2013-06-11 15:19:00,
2013-06-11 11:24:00,69.2,68.9,29.69,SE,130,0.0,4.0,99,0.00,,,0.47,Wunderground v.1.15,2013-06-11 15:24:00,
2013-06-11 11:29:00,69.2,68.9,29.69,NNW,329,0.0,4.0,99,0.00,,,0.47,Wunderground v.1.15,2013-06-11 15:29:00,
2013-06-11 11:34:00,69.4,69.1,29.69,NE,42,0.0,2.0,99,0.00,,,0.47,Wunderground v.1.15,2013-06-11 15:34:00,
2013-06-11 11:39:00,69.8,69.5,29.68,NE,42,0.0,2.0,99,0.00,,,0.47,Wunderground v.1.15,2013-06-11 15:39:00,
2013-06-11 11:44:00,70.0,69.7,29.68,SW,220,0.0,2.0,99,0.00,,,0.47,Wunderground v.1.15,2013-06-11 15:44:00,
2013-06-11 11:50:00,69.8,69.5,29.68,NE,42,0.0,5.0,99,0.00,,,0.47,Wunderground v.1.15,2013-06-11 15:50:00,
2013-06-11 11:54:00,69.9,69.6,29.68,NE,42,0.0,1.0,99,0.00,,,0.47,Wunderground v.1.15,2013-06-11 15:54:00,
2013-06-11 11:59:00,70.0,69.4,29.69,NE,38,0.0,1.0,98,0.00,,,0.47,Wunderground v.1.15,2013-06-11 15:59:00,
2013-06-11 12:05:00,70.1,69.5,29.69,NE,41,0.0,0.0,98,0.00,,,0.47,Wunderground v.1.15,2013-06-11 16:05:00,
2013-06-11 12:09:00,70.5,69.9,29.69,NE,55,0.0,2.0,98,0.00,,,0.47,Wunderground v.1.15,2013-06-11 16:09:00,
2013-06-11 12:14:00,70.8,70.2,29.69,NE,40,0.0,3.0,98,0.00,,,0.47,Wunderground v.1.15,2013-06-11 16:14:00,
2013-06-11 12:20:00,71.0,70.1,29.69,SSW,208,0.0,0.0,97,0.00,,,0.47,Wunderground v.1.15,2013-06-11 16:20:00,
2013-06-11 12:25:00,71.2,70.3,29.68,NNW,344,0.0,2.0,97,0.00,,,0.47,Wunderground v.1.15,2013-06-11 16:25:00,
2013-06-11 12:30:00,71.5,69.7,29.68,SW,215,1.0,1.0,94,0.00,,,0.47,Wunderground v.1.15,2013-06-11 16:30:00,
2013-06-11 12:35:00,72.0,70.2,29.68,ESE,117,0.0,3.0,94,0.00,,,0.47,Wunderground v.1.15,2013-06-11 16:35:00,
2013-06-11 12:40:00,72.7,71.5,29.68,NE,40,0.0,1.0,96,0.00,,,0.47,Wunderground v.1.15,2013-06-11 16:40:00,
2013-06-11 12:45:00,73.1,70.6,29.68,SSE,157,3.0,3.0,92,0.00,,,0.47,Wunderground v.1.15,2013-06-11 16:45:00,
2013-06-11 12:50:00,73.5,70.7,29.67,ESE,111,2.0,2.0,91,0.00,,,0.47,Wunderground v.1.15,2013-06-11 16:50:00,
2013-06-11 12:55:00,73.9,71.4,29.68,SE,140,5.0,6.0,92,0.00,,,0.47,Wunderground v.1.15,2013-06-11 16:55:00,
2013-06-11 13:00:00,73.9,70.1,29.67,South,173,1.0,1.0,88,0.00,,,0.47,Wunderground v.1.15,2013-06-11 17:00:00,
2013-06-11 13:05:00,73.9,70.5,29.67,East,91,0.0,2.0,89,0.00,,,0.47,Wunderground v.1.15,2013-06-11 17:05:00,
2013-06-11 13:10:00,73.9,70.5,29.67,East,91,0.0,0.0,89,0.00,,,0.47,Wunderground v.1.15,2013-06-11 17:10:00,
2013-06-11 13:15:00,74.0,70.2,29.67,East,96,0.0,1.0,88,0.00,,,0.47,Wunderground v.1.15,2013-06-11 17:15:00,
2013-06-11 13:20:00,74.3,70.2,29.67,WNW,288,0.0,0.0,87,0.00,,,0.47,Wunderground v.1.15,2013-06-11 17:20:00,
2013-06-11 13:25:00,74.3,70.8,29.66,NE,40,0.0,2.0,89,0.00,,,0.47,Wunderground v.1.15,2013-06-11 17:25:00,
2013-06-11 13:30:00,74.2,70.4,29.66,NE,40,0.0,0.0,88,0.00,,,0.47,Wunderground v.1.15,2013-06-11 17:30:00,
2013-06-11 13:35:00,74.1,70.3,29.66,NE,40,0.0,1.0,88,0.00,,,0.47,Wunderground v.1.15,2013-06-11 17:35:00,
2013-06-11 13:40:00,74.2,69.4,29.65,East,89,0.0,3.0,85,0.00,,,0.47,Wunderground v.1.15,2013-06-11 17:40:00,
2013-06-11 13:45:00,74.9,70.8,29.64,East,90,2.0,3.0,87,0.00,,,0.47,Wunderground v.1.15,2013-06-11 17:45:00,
2013-06-11 13:50:00,75.6,70.1,29.64,South,174,0.0,1.0,83,0.00,,,0.47,Wunderground v.1.15,2013-06-11 17:50:00,
2013-06-11 13:55:00,76.4,70.9,29.64,South,174,1.0,2.0,83,0.00,,,0.47,Wunderground v.1.15,2013-06-11 17:55:00,
2013-06-11 14:00:00,76.9,70.3,29.64,SE,146,2.0,3.0,80,0.00,,,0.47,Wunderground v.1.15,2013-06-11 18:00:00,
2013-06-11 14:05:00,77.4,70.0,29.64,SE,134,1.0,4.0,78,0.00,,,0.47,Wunderground v.1.15,2013-06-11 18:05:00,
2013-06-11 14:10:00,77.8,70.0,29.64,North,5,2.0,3.0,77,0.00,,,0.47,Wunderground v.1.15,2013-06-11 18:10:00,
2013-06-11 14:15:00,78.1,70.7,29.64,NE,38,3.0,5.0,78,0.00,,,0.47,Wunderground v.1.15,2013-06-11 18:15:00,
2013-06-11 14:20:00,78.2,70.4,29.64,ENE,76,1.0,2.0,77,0.00,,,0.47,Wunderground v.1.15,2013-06-11 18:20:00,
2013-06-11 14:25:00,78.3,69.7,29.63,SSE,154,0.0,5.0,75,0.00,,,0.47,Wunderground v.1.15,2013-06-11 18:25:00,
2013-06-11 14:30:00,78.5,70.3,29.63,SE,129,0.0,2.0,76,0.00,,,0.47,Wunderground v.1.15,2013-06-11 18:30:00,
2013-06-11 14:36:00,78.5,70.3,29.63,SE,125,2.0,3.0,76,0.00,,,0.47,Wunderground v.1.15,2013-06-11 18:36:00,
2013-06-11 14:41:00,78.6,70.4,29.64,SE,132,2.0,4.0,76,0.00,,,0.47,Wunderground v.1.15,2013-06-11 18:41:00,
2013-06-11 14:46:00,78.2,69.2,29.63,SSE,157,2.0,5.0,74,0.00,,,0.47,Wunderground v.1.15,2013-06-11 18:46:00,
2013-06-11 14:50:00,77.4,69.2,29.63,WSW,248,5.0,5.0,76,0.00,,,0.47,Wunderground v.1.15,2013-06-11 18:50:00,
2013-06-11 14:56:00,76.6,69.2,29.63,SSW,206,0.0,5.0,78,0.00,,,0.47,Wunderground v.1.15,2013-06-11 18:56:00,
2013-06-11 15:01:00,76.3,69.3,29.63,SSW,193,2.0,2.0,79,0.00,,,0.47,Wunderground v.1.15,2013-06-11 19:01:00,
2013-06-11 15:06:00,76.1,68.4,29.63,SSW,200,1.0,7.0,77,0.00,,,0.47,Wunderground v.1.15,2013-06-11 19:06:00,
2013-06-11 15:11:00,76.0,69.0,29.63,South,186,1.0,3.0,79,0.00,,,0.47,Wunderground v.1.15,2013-06-11 19:11:00,
2013-06-11 15:16:00,76.0,69.0,29.62,South,173,0.0,3.0,79,0.00,,,0.47,Wunderground v.1.15,2013-06-11 19:16:00,
2013-06-11 15:21:00,75.9,68.9,29.62,South,173,0.0,1.0,79,0.00,,,0.47,Wunderground v.1.15,2013-06-11 19:21:00,
2013-06-11 15:26:00,75.6,69.0,29.62,SSW,213,0.0,3.0,80,0.00,,,0.47,Wunderground v.1.15,2013-06-11 19:26:00,
2013-06-11 15:31:00,75.7,69.8,29.61,SSW,213,1.0,2.0,82,0.00,,,0.47,Wunderground v.1.15,2013-06-11 19:31:00,
2013-06-11 15:36:00,75.7,69.5,29.61,SSW,202,4.0,4.0,81,0.00,,,0.47,Wunderground v.1.15,2013-06-11 19:36:00,
2013-06-11 15:41:00,75.7,69.8,29.60,SSW,204,1.0,3.0,82,0.00,,,0.47,Wunderground v.1.15,2013-06-11 19:41:00,
2013-06-11 15:46:00,75.4,69.5,29.60,SSE,161,3.0,6.0,82,0.00,,,0.47,Wunderground v.1.15,2013-06-11 19:46:00,
2013-06-11 15:51:00,75.0,69.1,29.60,ESE,121,1.0,2.0,82,0.00,,,0.47,Wunderground v.1.15,2013-06-11 19:51:00,
2013-06-11 15:56:00,74.6,69.1,29.60,SSW,194,1.0,4.0,83,0.00,,,0.47,Wunderground v.1.15,2013-06-11 19:56:00,
2013-06-11 16:01:00,74.4,69.6,29.59,WSW,246,1.0,5.0,85,0.00,,,0.47,Wunderground v.1.15,2013-06-11 20:01:00,
2013-06-11 16:06:00,74.5,70.0,29.59,South,178,4.0,7.0,86,0.00,,,0.47,Wunderground v.1.15,2013-06-11 20:06:00,
2013-06-11 16:11:00,74.6,69.4,29.59,South,186,0.0,6.0,84,0.00,,,0.47,Wunderground v.1.15,2013-06-11 20:11:00,
2013-06-11 16:16:00,74.9,69.7,29.59,SW,219,1.0,8.0,84,0.00,,,0.47,Wunderground v.1.15,2013-06-11 20:16:00,
2013-06-11 16:21:00,75.0,69.8,29.59,SSW,197,0.0,3.0,84,0.00,,,0.47,Wunderground v.1.15,2013-06-11 20:21:00,
2013-06-11 16:26:00,75.0,69.8,29.59,SSE,161,2.0,5.0,84,0.00,,,0.47,Wunderground v.1.15,2013-06-11 20:26:00,
2013-06-11 16:32:00,74.9,69.4,29.59,ESE,113,2.0,4.0,83,0.00,,,0.47,Wunderground v.1.15,2013-06-11 20:32:00,
2013-06-11 16:37:00,74.7,69.5,29.58,SSW,200,2.0,5.0,84,0.00,,,0.47,Wunderground v.1.15,2013-06-11 20:37:00,
2013-06-11 16:42:00,74.4,68.5,29.58,SE,142,1.0,8.0,82,0.00,,,0.47,Wunderground v.1.15,2013-06-11 20:42:00,
2013-06-11 16:47:00,74.1,69.0,29.58,SW,217,1.0,8.0,84,0.00,,,0.47,Wunderground v.1.15,2013-06-11 20:47:00,
2013-06-11 16:52:00,73.7,68.6,29.58,SE,136,0.0,3.0,84,0.00,,,0.47,Wunderground v.1.15,2013-06-11 20:52:00,
2013-06-11 16:57:00,73.1,68.3,29.58,SSE,147,0.0,3.0,85,0.00,,,0.48,Wunderground v.1.15,2013-06-11 20:57:00,
2013-06-11 17:02:00,72.5,68.7,29.58,SSE,148,0.0,2.0,88,0.19,,,0.50,Wunderground v.1.15,2013-06-11 21:02:00,
2013-06-11 17:07:00,71.8,68.4,29.58,SSE,166,0.0,9.0,89,0.18,,,0.51,Wunderground v.1.15,2013-06-11 21:07:00,
2013-06-11 17:12:00,71.2,68.4,29.60,ENE,67,0.0,2.0,91,2.98,,,0.59,Wunderground v.1.15,2013-06-11 21:12:00,
2013-06-11 17:17:00,70.6,68.2,29.60,SW,233,0.0,5.0,92,3.97,,,0.81,Wunderground v.1.15,2013-06-11 21:17:00,
2013-06-11 17:22:00,70.0,67.9,29.59,South,182,0.0,3.0,93,0.16,,,0.86,Wunderground v.1.15,2013-06-11 21:22:00,
2013-06-11 17:27:00,69.5,67.7,29.59,SE,138,1.0,3.0,94,0.38,,,0.89,Wunderground v.1.15,2013-06-11 21:27:00,
2013-06-11 17:32:00,69.2,67.4,29.59,SSE,166,1.0,3.0,94,0.10,,,0.89,Wunderground v.1.15,2013-06-11 21:32:00,
2013-06-11 17:37:00,69.0,67.5,29.58,East,94,0.0,3.0,95,0.05,,,0.89,Wunderground v.1.15,2013-06-11 21:37:00,
2013-06-11 17:42:00,68.9,67.7,29.58,East,94,0.0,0.0,96,0.04,,,0.89,Wunderground v.1.15,2013-06-11 21:42:00,
2013-06-11 17:47:00,69.0,68.1,29.58,ESE,108,0.0,0.0,97,0.00,,,0.89,Wunderground v.1.15,2013-06-11 21:47:00,
2013-06-11 17:52:00,69.0,68.1,29.57,NE,44,0.0,2.0,97,0.00,,,0.89,Wunderground v.1.15,2013-06-11 21:52:00,
2013-06-11 17:57:00,69.1,68.2,29.57,East,95,0.0,2.0,97,0.00,,,0.89,Wunderground v.1.15,2013-06-11 21:57:00,
2013-06-11 18:02:00,69.2,68.3,29.57,SSE,159,0.0,1.0,97,0.00,,,0.89,Wunderground v.1.15,2013-06-11 22:02:00,
2013-06-11 18:07:00,69.3,68.4,29.57,SW,224,6.0,6.0,97,0.00,,,0.89,Wunderground v.1.15,2013-06-11 22:07:00,
2013-06-11 18:12:00,69.4,68.5,29.57,South,169,2.0,3.0,97,0.00,,,0.89,Wunderground v.1.15,2013-06-11 22:12:00,
2013-06-11 18:18:00,69.3,68.1,29.57,SSW,192,0.0,4.0,96,0.00,,,0.89,Wunderground v.1.15,2013-06-11 22:18:00,
2013-06-11 18:23:00,69.2,68.0,29.57,SE,140,0.0,1.0,96,0.00,,,0.89,Wunderground v.1.15,2013-06-11 22:23:00,
2013-06-11 18:28:00,69.1,68.2,29.57,ESE,117,0.0,2.0,97,0.00,,,0.89,Wunderground v.1.15,2013-06-11 22:28:00,
2013-06-11 18:33:00,69.0,68.1,29.58,ESE,117,0.0,1.0,97,0.00,,,0.89,Wunderground v.1.15,2013-06-11 22:33:00,
2013-06-11 18:38:00,68.9,67.7,29.57,ESE,111,0.0,1.0,96,0.00,,,0.89,Wunderground v.1.15,2013-06-11 22:38:00,
2013-06-11 18:43:00,68.7,67.5,29.58,NE,45,0.0,1.0,96,0.00,,,0.90,Wunderground v.1.15,2013-06-11 22:43:00,
2013-06-11 18:48:00,68.6,67.4,29.58,NE,45,0.0,1.0,96,0.18,,,0.92,Wunderground v.1.15,2013-06-11 22:48:00,
2013-06-11 18:53:00,68.5,67.3,29.57,SE,126,1.0,4.0,96,0.20,,,0.93,Wunderground v.1.15,2013-06-11 22:53:00,
2013-06-11 18:58:00,68.3,67.1,29.57,ENE,77,1.0,4.0,96,0.08,,,0.93,Wunderground v.1.15,2013-06-11 22:58:00,
2013-06-11 19:03:00,68.2,67.3,29.57,NE,56,2.0,2.0,97,0.05,,,0.93,Wunderground v.1.15,2013-06-11 23:03:00,
2013-06-11 19:08:00,68.2,67.3,29.57,NE,44,0.0,3.0,97,0.00,,,0.93,Wunderground v.1.15,2013-06-11 23:08:00,
2013-06-11 19:13:00,68.1,67.2,29.57,NNW,329,0.0,1.0,97,0.00,,,0.93,Wunderground v.1.15,2013-06-11 23:13:00,
2013-06-11 19:18:00,68.1,67.2,29.57,NNW,342,1.0,4.0,97,0.00,,,0.93,Wunderground v.1.15,2013-06-11 23:18:00,
2013-06-11 19:23:00,68.0,67.1,29.57,NNE,28,0.0,2.0,97,0.00,,,0.93,Wunderground v.1.15,2013-06-11 23:23:00,
2013-06-11 19:28:00,68.0,67.1,29.57,NNW,336,0.0,4.0,97,0.00,,,0.93,Wunderground v.1.15,2013-06-11 23:28:00,
2013-06-11 19:33:00,67.9,67.0,29.57,South,190,3.0,3.0,97,0.00,,,0.93,Wunderground v.1.15,2013-06-11 23:33:00,
2013-06-11 19:38:00,67.9,67.0,29.57,NNW,337,0.0,6.0,97,0.00,,,0.93,Wunderground v.1.15,2013-06-11 23:38:00,
2013-06-11 19:43:00,67.9,67.0,29.57,NE,51,0.0,1.0,97,0.00,,,0.93,Wunderground v.1.15,2013-06-11 23:43:00,
2013-06-11 19:48:00,67.8,66.9,29.57,NE,51,0.0,1.0,97,0.00,,,0.93,Wunderground v.1.15,2013-06-11 23:48:00,
2013-06-11 19:53:00,67.8,67.2,29.58,NNE,27,0.0,2.0,98,0.00,,,0.93,Wunderground v.1.15,2013-06-11 23:53:00,
2013-06-11 19:58:00,67.7,66.8,29.58,NNE,27,0.0,2.0,97,0.00,,,0.93,Wunderground v.1.15,2013-06-11 23:58:00,
2013-06-11 20:03:00,67.7,67.1,29.58,ESE,103,0.0,0.0,98,0.00,,,0.93,Wunderground v.1.15,2013-06-12 00:03:00,
2013-06-11 20:08:00,67.6,67.0,29.58,ESE,103,0.0,1.0,98,0.00,,,0.93,Wunderground v.1.15,2013-06-12 00:08:00,
2013-06-11 20:13:00,67.6,67.0,29.58,ESE,103,0.0,0.0,98,0.00,,,0.93,Wunderground v.1.15,2013-06-12 00:13:00,
2013-06-11 20:19:00,67.5,66.9,29.58,ESE,103,0.0,0.0,98,0.00,,,0.93,Wunderground v.1.15,2013-06-12 00:19:00,
2013-06-11 20:24:00,67.4,66.8,29.58,ESE,103,0.0,0.0,98,0.00,,,0.93,Wunderground v.1.15,2013-06-12 00:24:00,
2013-06-11 20:29:00,67.4,66.8,29.58,ESE,103,0.0,0.0,98,0.00,,,0.93,Wunderground v.1.15,2013-06-12 00:29:00,
2013-06-11 20:34:00,67.3,66.7,29.58,ESE,103,0.0,0.0,98,0.00,,,0.93,Wunderground v.1.15,2013-06-12 00:34:00,
2013-06-11 20:39:00,67.2,66.6,29.58,ESE,103,0.0,0.0,98,0.00,,,0.93,Wunderground v.1.15,2013-06-12 00:39:00,
2013-06-11 20:44:00,67.1,66.2,29.59,ESE,103,0.0,0.0,97,0.00,,,0.93,Wunderground v.1.15,2013-06-12 00:44:00,
2013-06-11 20:49:00,67.0,66.4,29.59,ESE,103,0.0,0.0,98,0.00,,,0.93,Wunderground v.1.15,2013-06-12 00:49:00,
2013-06-11 20:54:00,66.9,66.3,29.59,ESE,103,0.0,0.0,98,0.00,,,0.93,Wunderground v.1.15,2013-06-12 00:54:00,
2013-06-11 20:59:00,66.8,66.2,29.59,ESE,103,0.0,0.0,98,0.00,,,0.93,Wunderground v.1.15,2013-06-12 00:59:00,
2013-06-11 21:04:00,66.8,66.2,29.59,ESE,103,0.0,1.0,98,0.00,,,0.93,Wunderground v.1.15,2013-06-12 01:04:00,
2013-06-11 21:09:00,66.7,66.1,29.59,ESE,103,0.0,1.0,98,0.00,,,0.93,Wunderground v.1.15,2013-06-12 01:09:00,
2013-06-11 21:14:00,66.6,66.0,29.60,ESE,103,0.0,0.0,98,0.00,,,0.93,Wunderground v.1.15,2013-06-12 01:14:00,
2013-06-11 21:19:00,66.5,65.9,29.60,ESE,103,0.0,0.0,98,0.00,,,0.93,Wunderground v.1.15,2013-06-12 01:19:00,
2013-06-11 21:24:00,66.5,65.9,29.60,ESE,103,0.0,0.0,98,0.00,,,0.93,Wunderground v.1.15,2013-06-12 01:24:00,
2013-06-11 21:29:00,66.4,65.8,29.60,ESE,103,0.0,0.0,98,0.00,,,0.93,Wunderground v.1.15,2013-06-12 01:29:00,
2013-06-11 21:34:00,66.4,65.8,29.60,ESE,103,0.0,0.0,98,0.00,,,0.93,Wunderground v.1.15,2013-06-12 01:34:00,
2013-06-11 21:39:00,66.4,65.8,29.61,ESE,103,0.0,0.0,98,0.00,,,0.93,Wunderground v.1.15,2013-06-12 01:39:00,
2013-06-11 21:44:00,66.4,65.8,29.60,ESE,103,0.0,0.0,98,0.00,,,0.93,Wunderground v.1.15,2013-06-12 01:44:00,
2013-06-11 21:49:00,66.4,65.8,29.61,ESE,103,0.0,0.0,98,0.00,,,0.93,Wunderground v.1.15,2013-06-12 01:49:00,
2013-06-11 21:54:00,66.3,65.7,29.61,ESE,103,0.0,1.0,98,0.00,,,0.93,Wunderground v.1.15,2013-06-12 01:54:00,
2013-06-11 21:59:00,66.3,65.7,29.61,ESE,103,0.0,1.0,98,0.00,,,0.93,Wunderground v.1.15,2013-06-12 01:59:00,
2013-06-11 22:04:00,66.3,65.7,29.61,ESE,103,0.0,0.0,98,0.00,,,0.93,Wunderground v.1.15,2013-06-12 02:04:00,
2013-06-11 22:09:00,66.3,65.7,29.61,ESE,103,0.0,0.0,98,0.00,,,0.93,Wunderground v.1.15,2013-06-12 02:09:00,
2013-06-11 22:14:00,66.3,65.7,29.61,ESE,103,0.0,0.0,98,0.00,,,0.93,Wunderground v.1.15,2013-06-12 02:14:00,
2013-06-11 22:19:00,66.2,65.6,29.61,ESE,103,0.0,0.0,98,0.00,,,0.93,Wunderground v.1.15,2013-06-12 02:19:00,
2013-06-11 22:24:00,66.2,65.6,29.61,ESE,103,0.0,0.0,98,0.00,,,0.93,Wunderground v.1.15,2013-06-12 02:24:00,
2013-06-11 22:29:00,66.0,65.4,29.61,ESE,103,0.0,0.0,98,0.00,,,0.93,Wunderground v.1.15,2013-06-12 02:29:00,
2013-06-11 22:34:00,65.9,65.3,29.61,ESE,103,0.0,0.0,98,0.00,,,0.93,Wunderground v.1.15,2013-06-12 02:34:00,
2013-06-11 22:39:00,65.9,65.3,29.61,ESE,103,0.0,0.0,98,0.00,,,0.93,Wunderground v.1.15,2013-06-12 02:39:00,
2013-06-11 22:44:00,65.7,65.1,29.61,ESE,103,0.0,0.0,98,0.00,,,0.93,Wunderground v.1.15,2013-06-12 02:44:00,
2013-06-11 22:49:00,65.6,65.0,29.61,ESE,103,0.0,0.0,98,0.00,,,0.93,Wunderground v.1.15,2013-06-12 02:49:00,
2013-06-11 22:54:00,65.5,64.9,29.61,ESE,103,0.0,0.0,98,0.00,,,0.93,Wunderground v.1.15,2013-06-12 02:54:00,
2013-06-11 22:59:00,65.3,64.7,29.61,ESE,103,0.0,0.0,98,0.00,,,0.93,Wunderground v.1.15,2013-06-12 02:59:00,
2013-06-11 23:04:00,65.2,64.6,29.61,ESE,103,0.0,0.0,98,0.00,,,0.93,Wunderground v.1.15,2013-06-12 03:04:00,
2013-06-11 23:09:00,65.0,64.4,29.61,ESE,103,0.0,0.0,98,0.00,,,0.93,Wunderground v.1.15,2013-06-12 03:09:00,
2013-06-11 23:14:00,64.9,64.3,29.61,ESE,103,0.0,0.0,98,0.00,,,0.93,Wunderground v.1.15,2013-06-12 03:14:00,
2013-06-11 23:19:00,64.8,64.2,29.61,ESE,103,0.0,0.0,98,0.00,,,0.93,Wunderground v.1.15,2013-06-12 03:19:00,
2013-06-11 23:24:00,64.7,64.1,29.61,ESE,103,0.0,0.0,98,0.00,,,0.93,Wunderground v.1.15,2013-06-12 03:24:00,
2013-06-11 23:29:00,64.5,63.9,29.61,ESE,103,0.0,0.0,98,0.00,,,0.93,Wunderground v.1.15,2013-06-12 03:29:00,
2013-06-11 23:34:00,64.4,63.8,29.61,ESE,103,0.0,0.0,98,0.00,,,0.93,Wunderground v.1.15,2013-06-12 03:34:00,
2013-06-11 23:39:00,64.4,63.8,29.61,ESE,103,0.0,0.0,98,0.00,,,0.93,Wunderground v.1.15,2013-06-12 03:39:00,
2013-06-11 23:44:00,64.3,63.7,29.62,ESE,103,0.0,0.0,98,0.00,,,0.93,Wunderground v.1.15,2013-06-12 03:44:00,
2013-06-11 23:49:00,64.3,63.7,29.62,ESE,103,0.0,0.0,98,0.00,,,0.93,Wunderground v.1.15,2013-06-12 03:49:00,
2013-06-11 23:54:00,64.3,63.7,29.62,ESE,103,0.0,0.0,98,0.00,,,0.93,Wunderground v.1.15,2013-06-12 03:54:00,
2013-06-11 23:59:00,64.3,63.7,29.62,ESE,103,0.0,1.0,98,0.00,,,0.93,Wunderground v.1.15,2013-06-12 03:59:00,